Time,TemperatureF,DewpointF,PressureIn,WindDirection,WindDirectionDegrees,WindSpeedMPH,WindSpeedGustMPH,Humidity,HourlyPrecipIn,Conditions,Clouds,dailyrainin,SoftwareType,DateUTC
2013-12-19 00:03:00,54.7,32.7,17.72,SSE,165,5.8,7.2,43,0.00,,---,0.00,VWS V14.00,2013-12-19 06:03:00,
2013-12-19 00:04:00,54.7,32.7,17.72,SSE,165,5.8,5.8,43,0.00,,---,0.00,VWS V14.00,2013-12-19 06:04:00,
2013-12-19 00:07:00,54.7,32.7,17.72,South,176,6.3,6.3,43,0.00,,---,0.00,VWS V14.00,2013-12-19 06:07:00,
2013-12-19 00:10:00,54.7,32.7,17.72,SSE,151,6.3,6.3,43,0.00,,---,0.00,VWS V14.00,2013-12-19 06:10:00,
2013-12-19 00:13:00,54.7,32.7,17.72,SE,133,4.5,6.3,43,0.00,,---,0.00,VWS V14.00,2013-12-19 06:13:00,
2013-12-19 00:16:00,54.7,32.7,17.72,SE,133,4.5,6.3,43,0.00,,---,0.00,VWS V14.00,2013-12-19 06:16:00,
2013-12-19 00:18:00,54.7,32.7,17.72,SSE,152,4.9,6.3,43,0.00,,---,0.00,VWS V14.00,2013-12-19 06:18:00,
2013-12-19 00:22:00,54.6,32.5,17.72,South,172,5.4,5.4,43,0.00,,---,0.00,VWS V14.00,2013-12-19 06:22:00,
2013-12-19 00:25:00,54.6,32.5,17.72,SSE,164,4.0,5.4,43,0.00,,---,0.00,VWS V14.00,2013-12-19 06:25:00,
2013-12-19 00:28:00,54.6,32.5,17.72,SE,139,3.6,5.4,43,0.00,,---,0.00,VWS V14.00,2013-12-19 06:28:00,
2013-12-19 00:31:00,54.6,32.5,17.72,SSE,152,3.6,5.4,43,0.00,,---,0.00,VWS V14.00,2013-12-19 06:31:00,
2013-12-19 00:33:00,54.6,32.5,17.72,SSE,152,3.6,5.4,43,0.00,,---,0.00,VWS V14.00,2013-12-19 06:33:00,
2013-12-19 00:34:00,54.6,32.5,17.72,SSW,203,2.7,3.6,43,0.00,,---,0.00,VWS V14.00,2013-12-19 06:34:00,
2013-12-19 00:37:00,54.4,32.4,17.72,SSW,203,2.7,3.6,43,0.00,,---,0.00,VWS V14.00,2013-12-19 06:37:00,
2013-12-19 00:40:00,54.4,32.4,17.72,SSW,203,2.7,3.6,43,0.00,,---,0.00,VWS V14.00,2013-12-19 06:40:00,
2013-12-19 00:43:00,54.4,32.4,17.72,SSE,156,4.9,4.9,43,0.00,,---,0.00,VWS V14.00,2013-12-19 06:43:00,
2013-12-19 00:48:00,54.4,32.4,17.72,South,170,4.5,4.9,43,0.00,,---,0.00,VWS V14.00,2013-12-19 06:48:00,
2013-12-19 00:52:00,54.4,32.4,17.72,South,173,4.0,4.5,43,0.00,,---,0.00,VWS V14.00,2013-12-19 06:52:00,
2013-12-19 00:55:00,54.4,32.4,17.72,SSE,151,2.7,4.5,43,0.00,,---,0.00,VWS V14.00,2013-12-19 06:55:00,
2013-12-19 00:58:00,54.4,32.4,17.72,SSE,157,3.1,4.5,43,0.00,,---,0.00,VWS V14.00,2013-12-19 06:58:00,
2013-12-19 01:01:00,54.4,32.4,17.72,South,170,3.1,4.5,43,0.00,,---,0.00,VWS V14.00,2013-12-19 07:01:00,
2013-12-19 01:04:00,54.4,32.4,17.72,South,181,5.4,5.4,43,0.00,,---,0.00,VWS V14.00,2013-12-19 07:04:00,
2013-12-19 01:07:00,54.4,32.4,17.72,South,178,4.9,5.4,43,0.00,,---,0.00,VWS V14.00,2013-12-19 07:07:00,
2013-12-19 01:10:00,54.4,32.4,17.72,South,184,4.9,5.4,43,0.00,,---,0.00,VWS V14.00,2013-12-19 07:10:00,
2013-12-19 01:16:00,54.4,32.4,17.72,SSE,158,4.9,5.4,43,0.00,,---,0.00,VWS V14.00,2013-12-19 07:16:00,
2013-12-19 01:18:00,54.4,32.4,17.72,SSW,198,3.6,5.4,43,0.00,,---,0.00,VWS V14.00,2013-12-19 07:18:00,
2013-12-19 01:25:00,54.4,32.4,17.72,South,184,3.6,3.6,43,0.00,,---,0.00,VWS V14.00,2013-12-19 07:25:00,
2013-12-19 01:28:00,54.4,32.4,17.72,South,171,3.6,3.6,43,0.00,,---,0.00,VWS V14.00,2013-12-19 07:28:00,
2013-12-19 01:31:00,54.4,32.4,17.72,SSE,159,4.9,4.9,43,0.00,,---,0.00,VWS V14.00,2013-12-19 07:31:00,
2013-12-19 01:34:00,54.4,32.4,17.72,SSE,149,5.4,5.4,43,0.00,,---,0.00,VWS V14.00,2013-12-19 07:34:00,
2013-12-19 01:37:00,54.4,32.4,17.72,SSE,149,5.4,5.4,43,0.00,,---,0.00,VWS V14.00,2013-12-19 07:37:00,
2013-12-19 01:40:00,54.4,32.4,17.72,South,169,5.4,5.4,43,0.00,,---,0.00,VWS V14.00,2013-12-19 07:40:00,
2013-12-19 01:43:00,54.4,32.4,17.72,South,178,3.6,5.4,43,0.00,,---,0.00,VWS V14.00,2013-12-19 07:43:00,
2013-12-19 01:46:00,54.4,32.4,17.72,South,178,3.6,5.4,43,0.00,,---,0.00,VWS V14.00,2013-12-19 07:46:00,
2013-12-19 01:48:00,54.4,32.4,17.72,SE,138,3.6,5.4,43,0.00,,---,0.00,VWS V14.00,2013-12-19 07:48:00,
2013-12-19 01:49:00,54.4,32.4,17.72,SE,138,3.6,3.6,43,0.00,,---,0.00,VWS V14.00,2013-12-19 07:49:00,
2013-12-19 01:52:00,54.4,32.4,17.72,South,176,4.0,4.0,43,0.00,,---,0.00,VWS V14.00,2013-12-19 07:52:00,
2013-12-19 01:55:00,54.4,32.4,17.72,South,181,5.4,5.4,43,0.00,,---,0.00,VWS V14.00,2013-12-19 07:55:00,
2013-12-19 01:58:00,54.4,32.4,17.72,South,189,4.0,5.4,43,0.00,,---,0.00,VWS V14.00,2013-12-19 07:58:00,
2013-12-19 02:01:00,54.4,32.4,17.72,SSE,167,3.6,5.4,43,0.00,,---,0.00,VWS V14.00,2013-12-19 08:01:00,
2013-12-19 02:04:00,54.4,32.4,17.72,SSE,158,4.9,4.9,43,0.00,,---,0.00,VWS V14.00,2013-12-19 08:04:00,
2013-12-19 02:07:00,54.4,32.4,17.72,South,170,5.4,5.4,43,0.00,,---,0.00,VWS V14.00,2013-12-19 08:07:00,
2013-12-19 02:10:00,54.4,32.4,17.72,SSE,164,4.0,5.4,43,0.00,,---,0.00,VWS V14.00,2013-12-19 08:10:00,
2013-12-19 02:13:00,54.4,32.4,17.72,SSE,155,3.1,5.4,43,0.00,,---,0.00,VWS V14.00,2013-12-19 08:13:00,
2013-12-19 02:16:00,54.4,32.4,17.72,SSE,163,3.6,5.4,43,0.00,,---,0.00,VWS V14.00,2013-12-19 08:16:00,
2013-12-19 02:18:00,54.4,32.4,17.72,SSE,163,3.6,5.4,43,0.00,,---,0.00,VWS V14.00,2013-12-19 08:18:00,
2013-12-19 02:19:00,54.4,32.4,17.72,SSE,160,3.1,3.6,43,0.00,,---,0.00,VWS V14.00,2013-12-19 08:19:00,
2013-12-19 02:22:00,54.4,32.4,17.72,SSE,160,3.1,3.6,43,0.00,,---,0.00,VWS V14.00,2013-12-19 08:22:00,
2013-12-19 02:28:00,54.4,32.4,17.72,South,181,4.0,4.0,43,0.00,,---,0.00,VWS V14.00,2013-12-19 08:28:00,
2013-12-19 02:31:00,54.4,32.4,17.72,South,180,5.4,5.4,43,0.00,,---,0.00,VWS V14.00,2013-12-19 08:31:00,
2013-12-19 02:33:00,54.4,32.4,17.72,South,180,5.4,5.4,43,0.00,,---,0.00,VWS V14.00,2013-12-19 08:33:00,
2013-12-19 02:37:00,54.4,32.4,17.72,South,188,3.1,5.4,43,0.00,,---,0.00,VWS V14.00,2013-12-19 08:37:00,
2013-12-19 02:43:00,54.4,32.4,17.72,South,188,3.1,5.4,43,0.00,,---,0.00,VWS V14.00,2013-12-19 08:43:00,
2013-12-19 02:46:00,54.4,32.4,17.72,SSE,158,3.6,5.4,43,0.00,,---,0.00,VWS V14.00,2013-12-19 08:46:00,
2013-12-19 02:48:00,54.4,32.4,17.72,South,186,3.6,5.4,43,0.00,,---,0.00,VWS V14.00,2013-12-19 08:48:00,
2013-12-19 02:49:00,54.4,32.4,17.72,South,186,3.6,3.6,43,0.00,,---,0.00,VWS V14.00,2013-12-19 08:49:00,
2013-12-19 02:52:00,54.4,32.4,17.72,South,170,3.1,3.6,43,0.00,,---,0.00,VWS V14.00,2013-12-19 08:52:00,
2013-12-19 02:55:00,54.4,32.4,17.72,SSE,155,3.6,3.6,43,0.00,,---,0.00,VWS V14.00,2013-12-19 08:55:00,
2013-12-19 02:58:00,54.4,32.4,17.72,SSE,155,3.6,3.6,43,0.00,,---,0.00,VWS V14.00,2013-12-19 08:58:00,
2013-12-19 03:01:00,54.4,32.4,17.72,South,180,4.9,4.9,43,0.00,,---,0.00,VWS V14.00,2013-12-19 09:01:00,
2013-12-19 03:04:00,54.4,32.4,17.72,South,182,7.6,7.6,43,0.00,,---,0.00,VWS V14.00,2013-12-19 09:04:00,
2013-12-19 03:10:00,54.4,32.4,17.72,South,172,4.0,7.6,43,0.00,,---,0.00,VWS V14.00,2013-12-19 09:10:00,
2013-12-19 03:13:00,54.4,32.4,17.72,SSE,160,4.9,7.6,43,0.00,,---,0.00,VWS V14.00,2013-12-19 09:13:00,
2013-12-19 03:16:00,54.4,32.4,17.72,SSE,163,4.9,7.6,43,0.00,,---,0.00,VWS V14.00,2013-12-19 09:16:00,
2013-12-19 03:18:00,54.4,32.4,17.72,SSE,163,4.9,7.6,43,0.00,,---,0.00,VWS V14.00,2013-12-19 09:18:00,
2013-12-19 03:22:00,54.4,32.4,17.72,SSE,163,4.9,4.9,43,0.00,,---,0.00,VWS V14.00,2013-12-19 09:22:00,
2013-12-19 03:25:00,54.4,32.4,17.72,SSE,151,3.1,5.8,43,0.00,,---,0.00,VWS V14.00,2013-12-19 09:25:00,
2013-12-19 03:28:00,54.4,32.4,17.72,SSE,151,3.1,5.8,43,0.00,,---,0.00,VWS V14.00,2013-12-19 09:28:00,
2013-12-19 03:31:00,54.4,32.4,17.72,SSE,168,6.3,6.3,43,0.00,,---,0.00,VWS V14.00,2013-12-19 09:31:00,
2013-12-19 03:33:00,54.4,32.4,17.72,SSE,168,6.3,6.3,43,0.00,,---,0.00,VWS V14.00,2013-12-19 09:33:00,
2013-12-19 03:37:00,54.4,32.4,17.72,SSE,163,4.0,6.3,43,0.00,,---,0.00,VWS V14.00,2013-12-19 09:37:00,
2013-12-19 03:40:00,54.4,32.4,17.72,SSE,148,4.9,6.3,43,0.00,,---,0.00,VWS V14.00,2013-12-19 09:40:00,
2013-12-19 03:43:00,54.4,32.4,17.72,SE,133,2.7,6.3,43,0.00,,---,0.00,VWS V14.00,2013-12-19 09:43:00,
2013-12-19 03:46:00,54.4,32.4,17.72,South,181,3.6,6.3,43,0.00,,---,0.00,VWS V14.00,2013-12-19 09:46:00,
2013-12-19 03:52:00,54.4,32.4,17.72,South,186,4.0,4.0,43,0.00,,---,0.00,VWS V14.00,2013-12-19 09:52:00,
2013-12-19 03:58:00,54.4,32.4,17.72,SSE,151,3.6,4.0,43,0.00,,---,0.00,VWS V14.00,2013-12-19 09:58:00,
2013-12-19 04:01:00,54.4,32.4,17.72,South,185,3.1,4.0,43,0.00,,---,0.00,VWS V14.00,2013-12-19 10:01:00,
2013-12-19 04:05:00,54.4,32.4,17.72,South,185,3.1,3.1,43,0.00,,---,0.00,VWS V14.00,2013-12-19 10:05:00,
2013-12-19 04:08:00,54.4,32.4,17.72,South,175,3.1,3.1,43,0.00,,---,0.00,VWS V14.00,2013-12-19 10:08:00,
2013-12-19 04:11:00,54.4,32.4,17.72,South,188,2.7,3.1,43,0.00,,---,0.00,VWS V14.00,2013-12-19 10:11:00,
2013-12-19 04:14:00,53.7,32.3,17.72,South,187,2.7,3.1,44,0.00,,---,0.00,VWS V14.00,2013-12-19 10:14:00,
2013-12-19 04:17:00,53.7,32.3,17.72,SSE,158,3.1,3.1,44,0.00,,---,0.00,VWS V14.00,2013-12-19 10:17:00,
2013-12-19 04:23:00,53.7,32.3,17.72,South,169,4.0,4.0,44,0.00,,---,0.00,VWS V14.00,2013-12-19 10:23:00,
2013-12-19 04:26:00,53.7,32.3,17.72,South,170,4.0,4.0,44,0.00,,---,0.00,VWS V14.00,2013-12-19 10:26:00,
2013-12-19 04:29:00,53.7,32.3,17.72,South,178,3.6,4.0,44,0.00,,---,0.00,VWS V14.00,2013-12-19 10:29:00,
2013-12-19 04:32:00,53.7,32.3,17.72,South,178,2.7,4.0,44,0.00,,---,0.00,VWS V14.00,2013-12-19 10:32:00,
2013-12-19 04:33:00,53.7,32.3,17.72,South,178,2.7,4.0,44,0.00,,---,0.00,VWS V14.00,2013-12-19 10:33:00,
2013-12-19 04:38:00,53.7,32.3,17.72,South,178,2.7,3.1,44,0.00,,---,0.00,VWS V14.00,2013-12-19 10:38:00,
2013-12-19 04:41:00,53.7,32.3,17.72,South,178,3.1,3.1,44,0.00,,---,0.00,VWS V14.00,2013-12-19 10:41:00,
2013-12-19 04:44:00,53.7,32.3,17.72,South,178,3.1,3.1,44,0.00,,---,0.00,VWS V14.00,2013-12-19 10:44:00,
2013-12-19 04:47:00,53.7,32.3,17.72,SSE,149,4.0,4.0,44,0.00,,---,0.00,VWS V14.00,2013-12-19 10:47:00,
2013-12-19 04:50:00,53.7,32.3,17.72,SSE,160,3.6,3.6,44,0.00,,---,0.00,VWS V14.00,2013-12-19 10:50:00,
2013-12-19 04:53:00,53.7,32.3,17.72,SE,127,4.0,4.0,44,0.00,,---,0.00,VWS V14.00,2013-12-19 10:53:00,
2013-12-19 04:56:00,53.7,32.3,17.72,SSE,151,3.6,4.0,44,0.00,,---,0.00,VWS V14.00,2013-12-19 10:56:00,
2013-12-19 05:02:00,53.7,32.3,17.72,SSE,159,5.4,5.4,44,0.00,,---,0.00,VWS V14.00,2013-12-19 11:02:00,
2013-12-19 05:03:00,53.3,32.0,17.72,SSE,159,5.4,5.4,44,0.00,,---,0.00,VWS V14.00,2013-12-19 11:03:00,
2013-12-19 05:05:00,53.3,32.0,17.72,SSE,159,5.4,5.4,44,0.00,,---,0.00,VWS V14.00,2013-12-19 11:05:00,
2013-12-19 05:11:00,53.3,32.0,17.72,SSE,163,5.8,6.3,44,0.00,,---,0.00,VWS V14.00,2013-12-19 11:11:00,
2013-12-19 05:14:00,53.3,32.0,17.72,SSE,155,5.8,6.3,44,0.00,,---,0.00,VWS V14.00,2013-12-19 11:14:00,
2013-12-19 05:17:00,53.3,32.0,17.72,SE,141,8.1,8.1,44,0.00,,---,0.00,VWS V14.00,2013-12-19 11:17:00,
2013-12-19 05:18:00,53.3,32.0,17.72,SE,141,8.1,8.1,44,0.00,,---,0.00,VWS V14.00,2013-12-19 11:18:00,
2013-12-19 05:20:00,53.3,32.0,17.72,SE,142,5.8,8.3,44,0.00,,---,0.00,VWS V14.00,2013-12-19 11:20:00,
2013-12-19 05:23:00,53.3,32.0,17.72,SSE,151,7.6,8.3,44,0.00,,---,0.00,VWS V14.00,2013-12-19 11:23:00,
2013-12-19 05:29:00,53.3,32.0,17.72,SSE,155,5.4,8.3,44,0.00,,---,0.00,VWS V14.00,2013-12-19 11:29:00,
2013-12-19 05:32:00,53.3,32.0,17.72,SSE,155,5.4,8.3,44,0.00,,---,0.00,VWS V14.00,2013-12-19 11:32:00,
2013-12-19 05:35:00,53.3,32.0,17.72,SSE,149,5.8,5.8,44,0.00,,---,0.00,VWS V14.00,2013-12-19 11:35:00,
2013-12-19 05:38:00,52.9,32.2,17.72,SSE,149,5.8,5.8,45,0.00,,---,0.00,VWS V14.00,2013-12-19 11:38:00,
2013-12-19 05:41:00,52.9,32.2,17.72,SSE,164,7.6,7.6,45,0.00,,---,0.00,VWS V14.00,2013-12-19 11:41:00,
2013-12-19 05:44:00,52.9,32.2,17.72,SSE,162,5.8,7.6,45,0.00,,---,0.00,VWS V14.00,2013-12-19 11:44:00,
2013-12-19 05:47:00,52.9,32.7,17.72,SSE,162,5.8,7.6,46,0.00,,---,0.00,VWS V14.00,2013-12-19 11:47:00,
2013-12-19 05:48:00,52.9,32.7,17.72,SSE,162,5.8,7.6,46,0.00,,---,0.00,VWS V14.00,2013-12-19 11:48:00,
2013-12-19 05:50:00,52.9,32.7,17.72,SSE,162,5.8,5.8,46,0.00,,---,0.00,VWS V14.00,2013-12-19 11:50:00,
2013-12-19 05:56:00,52.9,32.7,17.72,SSE,165,5.8,7.6,46,0.00,,---,0.00,VWS V14.00,2013-12-19 11:56:00,
2013-12-19 05:59:00,52.9,32.7,17.72,SSE,166,6.3,7.6,46,0.00,,---,0.00,VWS V14.00,2013-12-19 11:59:00,
2013-12-19 06:03:00,52.9,32.7,17.72,SSE,167,8.1,8.1,46,0.00,,---,0.00,VWS V14.00,2013-12-19 12:03:00,
2013-12-19 06:08:00,52.9,32.7,17.72,SSE,167,8.1,8.1,46,0.00,,---,0.00,VWS V14.00,2013-12-19 12:08:00,
2013-12-19 06:14:00,52.9,32.7,17.72,SSE,160,6.3,8.1,46,0.00,,---,0.00,VWS V14.00,2013-12-19 12:14:00,
2013-12-19 06:18:00,52.9,32.7,17.72,SSE,162,6.7,8.1,46,0.00,,---,0.00,VWS V14.00,2013-12-19 12:18:00,
2013-12-19 06:20:00,52.9,32.7,17.72,SSE,153,6.3,6.7,46,0.00,,---,0.00,VWS V14.00,2013-12-19 12:20:00,
2013-12-19 06:23:00,52.9,32.7,17.72,SSE,162,5.4,6.7,46,0.00,,---,0.00,VWS V14.00,2013-12-19 12:23:00,
2013-12-19 06:29:00,52.9,32.7,17.72,South,178,8.3,8.3,46,0.00,,---,0.00,VWS V14.00,2013-12-19 12:29:00,
2013-12-19 06:32:00,52.9,32.7,17.72,SSE,156,7.6,8.3,46,0.00,,---,0.00,VWS V14.00,2013-12-19 12:32:00,
2013-12-19 06:33:00,52.9,32.7,17.72,SSE,162,7.6,8.3,46,0.00,,---,0.00,VWS V14.00,2013-12-19 12:33:00,
2013-12-19 06:35:00,52.9,32.7,17.72,SSE,162,7.6,7.6,46,0.00,,---,0.00,VWS V14.00,2013-12-19 12:35:00,
2013-12-19 06:38:00,52.9,32.7,17.72,SSE,162,7.6,7.6,46,0.00,,---,0.00,VWS V14.00,2013-12-19 12:38:00,
2013-12-19 06:41:00,52.9,32.7,17.72,SSE,157,7.6,7.6,46,0.00,,---,0.00,VWS V14.00,2013-12-19 12:41:00,
2013-12-19 06:44:00,52.9,32.7,17.72,SSE,149,6.3,7.6,46,0.00,,---,0.00,VWS V14.00,2013-12-19 12:44:00,
2013-12-19 06:47:00,52.9,32.7,17.72,SSE,162,8.7,8.7,46,0.00,,---,0.00,VWS V14.00,2013-12-19 12:47:00,
2013-12-19 06:50:00,52.9,32.7,17.72,SSE,153,7.6,7.6,46,0.00,,---,0.00,VWS V14.00,2013-12-19 12:50:00,
2013-12-19 06:53:00,52.9,32.7,17.72,South,173,8.1,8.1,46,0.00,,---,0.00,VWS V14.00,2013-12-19 12:53:00,
2013-12-19 06:56:00,52.9,32.7,17.72,South,172,8.3,8.3,46,0.00,,---,0.00,VWS V14.00,2013-12-19 12:56:00,
2013-12-19 07:02:00,52.8,33.6,17.72,South,172,8.3,8.3,48,0.00,,---,0.00,VWS V14.00,2013-12-19 13:02:00,
2013-12-19 07:04:00,52.8,33.6,17.72,South,172,8.3,8.3,48,0.00,,---,0.00,VWS V14.00,2013-12-19 13:04:00,
2013-12-19 07:05:00,52.8,33.6,17.72,South,172,8.3,8.3,48,0.00,,---,0.00,VWS V14.00,2013-12-19 13:05:00,
2013-12-19 07:08:00,52.8,33.6,17.72,SSE,153,8.7,8.7,48,0.00,,---,0.00,VWS V14.00,2013-12-19 13:08:00,
2013-12-19 07:11:00,52.8,33.6,17.72,SSE,153,8.7,8.7,48,0.00,,---,0.00,VWS V14.00,2013-12-19 13:11:00,
2013-12-19 07:17:00,52.8,34.2,17.72,SSE,162,10.5,10.5,49,0.00,,---,0.00,VWS V14.00,2013-12-19 13:17:00,
2013-12-19 07:18:00,52.8,34.2,17.72,SSE,168,10.5,10.5,49,0.00,,---,0.00,VWS V14.00,2013-12-19 13:18:00,
2013-12-19 07:20:00,52.8,34.2,17.72,SSE,151,10.1,10.5,49,0.00,,---,0.00,VWS V14.00,2013-12-19 13:20:00,
2013-12-19 07:23:00,52.8,34.2,17.72,South,169,8.7,10.5,49,0.00,,---,0.00,VWS V14.00,2013-12-19 13:23:00,
2013-12-19 07:29:00,52.8,34.2,17.72,SSE,147,10.1,10.5,49,0.00,,---,0.00,VWS V14.00,2013-12-19 13:29:00,
2013-12-19 07:32:00,52.8,34.2,17.72,SSE,147,10.1,10.5,49,0.00,,---,0.00,VWS V14.00,2013-12-19 13:32:00,
2013-12-19 07:33:00,52.8,34.2,17.72,SSE,153,10.5,10.5,49,0.00,,---,0.00,VWS V14.00,2013-12-19 13:33:00,
2013-12-19 07:38:00,52.8,34.2,17.72,SSE,153,10.5,10.5,49,0.00,,---,0.00,VWS V14.00,2013-12-19 13:38:00,
2013-12-19 07:41:00,52.8,34.2,17.72,SSE,154,10.5,10.5,49,0.00,,---,0.00,VWS V14.00,2013-12-19 13:41:00,
2013-12-19 07:44:00,52.8,34.7,17.72,SSE,154,10.5,10.5,50,0.00,,---,0.00,VWS V14.00,2013-12-19 13:44:00,
2013-12-19 07:47:00,52.8,34.7,17.72,SSE,159,10.1,10.5,50,0.00,,---,0.00,VWS V14.00,2013-12-19 13:47:00,
2013-12-19 07:50:00,52.8,34.7,17.72,SSE,160,8.7,8.7,50,0.00,,---,0.00,VWS V14.00,2013-12-19 13:50:00,
2013-12-19 07:53:00,52.9,35.3,17.72,SSE,155,10.1,10.1,51,0.00,,---,0.00,VWS V14.00,2013-12-19 13:53:00,
2013-12-19 07:56:00,52.9,35.3,17.72,SSE,148,10.1,10.1,51,0.00,,---,0.00,VWS V14.00,2013-12-19 13:56:00,
2013-12-19 08:02:00,52.9,35.3,17.72,SSE,148,10.1,10.1,51,0.00,,---,0.00,VWS V14.00,2013-12-19 14:02:00,
2013-12-19 08:03:00,52.9,35.3,17.72,SSE,151,8.3,10.1,51,0.00,,---,0.00,VWS V14.00,2013-12-19 14:03:00,
2013-12-19 08:05:00,52.9,35.3,17.72,SSE,151,8.3,8.3,51,0.00,,---,0.00,VWS V14.00,2013-12-19 14:05:00,
2013-12-19 08:11:00,52.9,35.3,17.72,SSE,153,11.4,11.4,51,0.00,,---,0.00,VWS V14.00,2013-12-19 14:11:00,
2013-12-19 08:17:00,52.9,35.3,17.72,South,189,10.5,11.4,51,0.00,,---,0.00,VWS V14.00,2013-12-19 14:17:00,
2013-12-19 08:18:00,52.9,35.3,17.72,SSE,160,10.5,11.4,51,0.00,,---,0.00,VWS V14.00,2013-12-19 14:18:00,
2013-12-19 08:20:00,52.9,35.3,17.72,SSE,160,10.5,10.5,51,0.00,,---,0.00,VWS V14.00,2013-12-19 14:20:00,
2013-12-19 08:23:00,52.9,35.3,17.72,SSE,160,10.5,10.5,51,0.00,,---,0.00,VWS V14.00,2013-12-19 14:23:00,
2013-12-19 08:26:00,53.1,36.0,17.72,SSE,152,10.5,10.5,52,0.00,,---,0.00,VWS V14.00,2013-12-19 14:26:00,
2013-12-19 08:32:00,53.1,36.0,17.72,SSE,152,9.2,10.5,52,0.00,,---,0.00,VWS V14.00,2013-12-19 14:32:00,
2013-12-19 08:33:00,53.1,36.5,17.72,SSE,152,9.2,10.5,53,0.00,,---,0.00,VWS V14.00,2013-12-19 14:33:00,
2013-12-19 08:35:00,53.1,36.5,17.72,SSE,152,9.2,9.2,53,0.00,,---,0.00,VWS V14.00,2013-12-19 14:35:00,
2013-12-19 08:38:00,53.1,36.5,17.72,SSE,152,9.2,9.2,53,0.00,,---,0.00,VWS V14.00,2013-12-19 14:38:00,
2013-12-19 08:41:00,53.1,36.5,17.72,SSE,152,9.2,9.2,53,0.00,,---,0.00,VWS V14.00,2013-12-19 14:41:00,
2013-12-19 08:44:00,53.3,36.6,17.72,SSE,152,9.2,9.2,53,0.00,,---,0.00,VWS V14.00,2013-12-19 14:44:00,
2013-12-19 08:47:00,53.3,36.6,17.72,SSE,163,8.3,9.2,53,0.00,,---,0.00,VWS V14.00,2013-12-19 14:47:00,
2013-12-19 08:48:00,53.3,36.6,17.72,SSE,163,8.3,9.2,53,0.00,,---,0.00,VWS V14.00,2013-12-19 14:48:00,
2013-12-19 08:53:00,53.3,36.6,17.72,SSE,152,8.7,9.6,53,0.00,,---,0.00,VWS V14.00,2013-12-19 14:53:00,
2013-12-19 08:56:00,53.3,36.6,17.72,SSE,152,10.1,10.1,53,0.00,,---,0.00,VWS V14.00,2013-12-19 14:56:00,
2013-12-19 08:59:00,53.5,37.3,17.72,SSE,152,10.1,10.1,54,0.00,,---,0.00,VWS V14.00,2013-12-19 14:59:00,
2013-12-19 09:03:00,53.5,37.3,17.72,SSE,153,8.7,10.1,54,0.00,,---,0.00,VWS V14.00,2013-12-19 15:03:00,
2013-12-19 09:09:00,53.7,37.4,17.72,SE,133,8.1,10.1,54,0.00,,---,0.00,VWS V14.00,2013-12-19 15:09:00,
2013-12-19 09:15:00,53.7,37.4,17.72,SE,142,11.0,11.0,54,0.00,,---,0.00,VWS V14.00,2013-12-19 15:15:00,
2013-12-19 09:18:00,53.7,37.4,17.72,SSE,151,8.3,11.0,54,0.00,,---,0.00,VWS V14.00,2013-12-19 15:18:00,
2013-12-19 09:21:00,53.7,37.4,17.72,SSE,155,10.1,10.1,54,0.00,,---,0.00,VWS V14.00,2013-12-19 15:21:00,
2013-12-19 09:24:00,53.7,37.4,17.72,SSE,160,8.1,10.1,54,0.00,,---,0.00,VWS V14.00,2013-12-19 15:24:00,
2013-12-19 09:27:00,53.7,37.4,17.72,SSE,162,8.7,10.1,54,0.00,,---,0.00,VWS V14.00,2013-12-19 15:27:00,
2013-12-19 09:30:00,53.7,37.4,17.72,SSE,154,8.3,10.1,54,0.00,,---,0.00,VWS V14.00,2013-12-19 15:30:00,
2013-12-19 09:33:00,53.7,37.4,17.72,SSE,154,8.3,10.1,54,0.00,,---,0.00,VWS V14.00,2013-12-19 15:33:00,
2013-12-19 09:36:00,53.7,37.4,17.72,SE,146,8.3,8.3,54,0.00,,---,0.00,VWS V14.00,2013-12-19 15:36:00,
2013-12-19 09:39:00,53.7,37.4,17.72,South,170,8.1,9.6,54,0.00,,---,0.00,VWS V14.00,2013-12-19 15:39:00,
2013-12-19 09:42:00,54.0,38.2,17.72,SE,140,11.0,11.0,55,0.00,,---,0.00,VWS V14.00,2013-12-19 15:42:00,
2013-12-19 09:45:00,54.0,38.2,17.72,SSE,150,8.7,11.0,55,0.00,,---,0.00,VWS V14.00,2013-12-19 15:45:00,
2013-12-19 09:48:00,54.0,38.2,17.72,SSE,151,10.1,11.0,55,0.00,,---,0.00,VWS V14.00,2013-12-19 15:48:00,
2013-12-19 09:51:00,54.2,38.4,17.72,SSE,151,10.1,10.1,55,0.00,,---,0.00,VWS V14.00,2013-12-19 15:51:00,
2013-12-19 09:54:00,54.2,38.4,17.72,SSE,155,8.7,10.1,55,0.00,,---,0.00,VWS V14.00,2013-12-19 15:54:00,
2013-12-19 09:57:00,54.2,38.4,17.72,SSE,155,8.7,10.1,55,0.00,,---,0.00,VWS V14.00,2013-12-19 15:57:00,
2013-12-19 10:03:00,54.4,38.6,17.72,SSE,153,8.1,10.1,55,0.00,,---,0.00,VWS V14.00,2013-12-19 16:03:00,
2013-12-19 10:06:00,54.4,38.6,17.72,SSE,153,8.1,8.1,55,0.00,,---,0.00,VWS V14.00,2013-12-19 16:06:00,
2013-12-19 10:09:00,54.6,38.7,17.72,SSE,153,8.1,8.1,55,0.00,,---,0.00,VWS V14.00,2013-12-19 16:09:00,
2013-12-19 10:12:00,54.6,38.7,17.72,SE,142,8.3,13.2,55,0.00,,---,0.00,VWS V14.00,2013-12-19 16:12:00,
2013-12-19 10:15:00,54.6,38.7,17.72,SSE,151,8.7,13.2,55,0.00,,---,0.00,VWS V14.00,2013-12-19 16:15:00,
2013-12-19 10:18:00,54.7,38.9,17.72,SE,144,10.1,13.2,55,0.00,,---,0.00,VWS V14.00,2013-12-19 16:18:00,
2013-12-19 10:21:00,54.7,38.9,17.72,SE,143,7.6,10.1,55,0.00,,---,0.00,VWS V14.00,2013-12-19 16:21:00,
2013-12-19 10:27:00,54.9,39.1,17.72,SSE,162,8.3,10.1,55,0.00,,---,0.00,VWS V14.00,2013-12-19 16:27:00,
2013-12-19 10:30:00,54.9,39.1,17.72,SSE,155,8.1,10.1,55,0.00,,---,0.00,VWS V14.00,2013-12-19 16:30:00,
2013-12-19 10:33:00,54.9,39.1,17.72,SSE,155,8.1,10.1,55,0.00,,---,0.00,VWS V14.00,2013-12-19 16:33:00,
2013-12-19 10:36:00,54.9,39.1,17.72,SSE,152,8.1,8.3,55,0.00,,---,0.00,VWS V14.00,2013-12-19 16:36:00,
2013-12-19 10:39:00,54.9,39.1,17.72,South,175,8.1,8.3,55,0.00,,---,0.00,VWS V14.00,2013-12-19 16:39:00,
2013-12-19 10:42:00,55.3,39.4,17.72,South,175,8.1,8.3,55,0.00,,---,0.00,VWS V14.00,2013-12-19 16:42:00,
2013-12-19 10:45:00,55.3,39.4,17.72,South,187,10.5,10.5,55,0.00,,---,0.00,VWS V14.00,2013-12-19 16:45:00,
2013-12-19 10:48:00,55.3,39.4,17.72,South,178,8.1,10.5,55,0.00,,---,0.00,VWS V14.00,2013-12-19 16:48:00,
2013-12-19 10:51:00,55.3,39.4,17.72,SSE,155,8.1,8.1,55,0.00,,---,0.00,VWS V14.00,2013-12-19 16:51:00,
2013-12-19 10:54:00,55.3,39.4,17.72,SSE,155,8.1,8.1,55,0.00,,---,0.00,VWS V14.00,2013-12-19 16:54:00,
2013-12-19 10:57:00,55.3,39.4,17.72,SSE,160,8.3,8.3,55,0.00,,---,0.00,VWS V14.00,2013-12-19 16:57:00,
2013-12-19 11:00:00,55.3,39.4,17.72,SSE,150,8.3,8.3,55,0.00,,---,0.00,VWS V14.00,2013-12-19 17:00:00,
2013-12-19 11:03:00,55.3,39.4,17.72,SSE,158,6.7,8.3,55,0.00,,---,0.00,VWS V14.00,2013-12-19 17:03:00,
2013-12-19 11:06:00,55.8,40.4,17.72,South,174,8.1,8.1,56,0.00,,---,0.00,VWS V14.00,2013-12-19 17:06:00,
2013-12-19 11:09:00,55.8,40.4,17.72,SSE,163,8.7,8.7,56,0.00,,---,0.00,VWS V14.00,2013-12-19 17:09:00,
2013-12-19 11:12:00,55.8,40.4,17.72,SSE,165,8.7,8.7,56,0.00,,---,0.00,VWS V14.00,2013-12-19 17:12:00,
2013-12-19 11:18:00,55.8,40.4,17.72,SSE,150,7.6,8.7,56,0.00,,---,0.00,VWS V14.00,2013-12-19 17:18:00,
2013-12-19 11:21:00,55.8,40.4,17.72,SSE,150,7.6,7.6,56,0.00,,---,0.00,VWS V14.00,2013-12-19 17:21:00,
2013-12-19 11:24:00,56.0,40.1,17.72,SSE,163,8.1,8.1,55,0.00,,---,0.00,VWS V14.00,2013-12-19 17:24:00,
2013-12-19 11:30:00,56.0,40.1,17.72,SSE,155,8.1,8.1,55,0.00,,---,0.00,VWS V14.00,2013-12-19 17:30:00,
2013-12-19 11:33:00,56.0,40.1,17.72,SSE,155,8.1,8.1,55,0.00,,---,0.00,VWS V14.00,2013-12-19 17:33:00,
2013-12-19 11:36:00,56.0,40.1,17.72,SSE,148,5.8,8.1,55,0.00,,---,0.00,VWS V14.00,2013-12-19 17:36:00,
2013-12-19 11:39:00,56.0,40.1,17.72,SSE,148,5.8,8.1,55,0.00,,---,0.00,VWS V14.00,2013-12-19 17:39:00,
2013-12-19 11:42:00,56.0,40.1,17.72,SSE,148,5.8,8.1,55,0.00,,---,0.00,VWS V14.00,2013-12-19 17:42:00,
2013-12-19 11:45:00,56.0,40.1,17.72,South,170,5.8,8.1,55,0.00,,---,0.00,VWS V14.00,2013-12-19 17:45:00,
2013-12-19 11:48:00,56.2,40.2,17.72,South,176,7.2,8.1,55,0.00,,---,0.00,VWS V14.00,2013-12-19 17:48:00,
2013-12-19 11:51:00,56.2,40.2,17.72,SE,136,6.3,7.2,55,0.00,,---,0.00,VWS V14.00,2013-12-19 17:51:00,
2013-12-19 11:54:00,56.2,40.2,17.72,SSE,157,5.4,7.2,55,0.00,,---,0.00,VWS V14.00,2013-12-19 17:54:00,
2013-12-19 11:57:00,56.2,40.2,17.72,SSE,156,6.3,7.2,55,0.00,,---,0.00,VWS V14.00,2013-12-19 17:57:00,
2013-12-19 12:00:00,56.2,40.2,17.72,SSE,157,6.3,7.2,55,0.00,,---,0.00,VWS V14.00,2013-12-19 18:00:00,
2013-12-19 12:03:00,56.2,40.2,17.72,SSE,161,5.8,7.2,55,0.00,,---,0.00,VWS V14.00,2013-12-19 18:03:00,
2013-12-19 12:06:00,56.2,40.2,17.72,SE,130,5.4,5.8,55,0.00,,---,0.00,VWS V14.00,2013-12-19 18:06:00,
2013-12-19 12:09:00,56.2,40.2,17.72,SSE,147,5.8,5.8,55,0.00,,---,0.00,VWS V14.00,2013-12-19 18:09:00,
2013-12-19 12:15:00,56.2,40.2,17.72,SSE,160,5.4,5.8,55,0.00,,---,0.00,VWS V14.00,2013-12-19 18:15:00,
2013-12-19 12:18:00,56.4,40.4,17.72,SSE,151,6.3,6.3,55,0.00,,---,0.00,VWS V14.00,2013-12-19 18:18:00,
2013-12-19 12:21:00,56.4,40.4,17.72,SSE,160,5.8,5.8,55,0.00,,---,0.00,VWS V14.00,2013-12-19 18:21:00,
2013-12-19 12:27:00,56.5,40.6,17.72,SSE,158,5.4,5.8,55,0.00,,---,0.00,VWS V14.00,2013-12-19 18:27:00,
2013-12-19 12:33:00,56.5,40.6,17.72,SE,135,6.3,6.3,55,0.00,,---,0.00,VWS V14.00,2013-12-19 18:33:00,
2013-12-19 12:39:00,56.7,40.8,17.72,SE,141,6.3,8.1,55,0.00,,---,0.00,VWS V14.00,2013-12-19 18:39:00,
2013-12-19 12:42:00,56.7,40.8,17.72,SE,141,6.3,8.1,55,0.00,,---,0.00,VWS V14.00,2013-12-19 18:42:00,
2013-12-19 12:45:00,56.7,40.8,17.72,SSE,150,7.6,8.1,55,0.00,,---,0.00,VWS V14.00,2013-12-19 18:45:00,
2013-12-19 12:48:00,56.7,40.8,17.72,SSE,150,7.6,8.1,55,0.00,,---,0.00,VWS V14.00,2013-12-19 18:48:00,
2013-12-19 12:51:00,56.7,40.8,17.72,SE,130,8.1,8.1,55,0.00,,---,0.00,VWS V14.00,2013-12-19 18:51:00,
2013-12-19 12:54:00,56.7,40.8,17.72,SSE,149,6.3,8.1,55,0.00,,---,0.00,VWS V14.00,2013-12-19 18:54:00,
2013-12-19 12:57:00,56.9,40.9,17.72,SSE,149,6.3,8.1,55,0.00,,---,0.00,VWS V14.00,2013-12-19 18:57:00,
2013-12-19 13:00:00,56.9,40.9,17.72,South,171,8.1,8.1,55,0.00,,---,0.00,VWS V14.00,2013-12-19 19:00:00,
2013-12-19 13:03:00,56.9,41.4,17.72,South,171,8.1,8.1,56,0.00,,---,0.00,VWS V14.00,2013-12-19 19:03:00,
2013-12-19 13:06:00,56.9,40.9,17.72,SSE,164,8.3,8.3,55,0.00,,---,0.00,VWS V14.00,2013-12-19 19:06:00,
2013-12-19 13:09:00,56.9,40.9,17.72,SSE,168,8.7,8.7,55,0.00,,---,0.00,VWS V14.00,2013-12-19 19:09:00,
2013-12-19 13:12:00,57.1,41.1,17.72,SSE,156,8.7,8.7,55,0.00,,---,0.00,VWS V14.00,2013-12-19 19:12:00,
2013-12-19 13:15:00,57.1,41.1,17.72,South,181,8.1,8.7,55,0.00,,---,0.00,VWS V14.00,2013-12-19 19:15:00,
2013-12-19 13:18:00,57.1,41.1,17.72,SSE,152,8.3,8.7,55,0.00,,---,0.00,VWS V14.00,2013-12-19 19:18:00,
2013-12-19 13:21:00,57.1,41.1,17.72,SSE,152,8.3,8.3,55,0.00,,---,0.00,VWS V14.00,2013-12-19 19:21:00,
2013-12-19 13:24:00,57.1,41.1,17.72,SSE,166,8.1,8.3,55,0.00,,---,0.00,VWS V14.00,2013-12-19 19:24:00,
2013-12-19 13:27:00,57.1,41.1,17.72,South,180,7.6,8.3,55,0.00,,---,0.00,VWS V14.00,2013-12-19 19:27:00,
2013-12-19 13:30:00,57.3,41.7,17.72,South,180,7.6,8.3,56,0.00,,---,0.00,VWS V14.00,2013-12-19 19:30:00,
2013-12-19 13:33:00,57.3,41.7,17.72,SSE,149,10.5,10.5,56,0.00,,---,0.00,VWS V14.00,2013-12-19 19:33:00,
2013-12-19 13:39:00,57.4,41.9,17.72,SSE,157,8.3,10.5,56,0.00,,---,0.00,VWS V14.00,2013-12-19 19:39:00,
2013-12-19 13:42:00,57.4,41.9,17.72,South,175,8.1,10.5,56,0.00,,---,0.00,VWS V14.00,2013-12-19 19:42:00,
2013-12-19 13:48:00,57.4,41.9,17.72,SSE,167,6.3,10.5,56,0.00,,---,0.00,VWS V14.00,2013-12-19 19:48:00,
2013-12-19 13:51:00,57.6,42.0,17.72,SSE,154,10.1,10.1,56,0.00,,---,0.00,VWS V14.00,2013-12-19 19:51:00,
2013-12-19 13:54:00,57.6,42.0,17.72,SSE,155,8.3,10.1,56,0.00,,---,0.00,VWS V14.00,2013-12-19 19:54:00,
2013-12-19 13:57:00,57.6,42.0,17.72,SSE,155,8.3,10.1,56,0.00,,---,0.00,VWS V14.00,2013-12-19 19:57:00,
2013-12-19 14:00:00,57.6,42.0,17.72,SSE,154,8.7,10.1,56,0.00,,---,0.00,VWS V14.00,2013-12-19 20:00:00,
2013-12-19 14:03:00,57.8,41.8,17.72,SSE,154,8.7,10.1,55,0.00,,---,0.00,VWS V14.00,2013-12-19 20:03:00,
2013-12-19 14:06:00,57.8,41.8,17.72,SSE,164,8.7,8.7,55,0.00,,---,0.00,VWS V14.00,2013-12-19 20:06:00,
2013-12-19 14:09:00,57.8,41.8,17.72,SSE,164,8.7,8.7,55,0.00,,---,0.00,VWS V14.00,2013-12-19 20:09:00,
2013-12-19 14:12:00,57.8,41.8,17.72,SSE,164,8.7,8.7,55,0.00,,---,0.00,VWS V14.00,2013-12-19 20:12:00,
2013-12-19 14:15:00,57.8,41.8,17.72,SE,138,5.8,8.7,55,0.00,,---,0.00,VWS V14.00,2013-12-19 20:15:00,
2013-12-19 14:18:00,57.8,41.8,17.72,South,179,10.1,10.1,55,0.00,,---,0.00,VWS V14.00,2013-12-19 20:18:00,
2013-12-19 14:21:00,58.0,41.9,17.72,South,179,10.1,10.1,55,0.00,,---,0.00,VWS V14.00,2013-12-19 20:21:00,
2013-12-19 14:24:00,58.0,41.9,17.72,SSE,158,8.7,10.1,55,0.00,,---,0.00,VWS V14.00,2013-12-19 20:24:00,
2013-12-19 14:27:00,58.2,42.1,17.72,SSE,158,8.7,10.1,55,0.00,,---,0.00,VWS V14.00,2013-12-19 20:27:00,
2013-12-19 14:30:00,58.2,42.1,17.72,South,170,8.7,10.1,55,0.00,,---,0.00,VWS V14.00,2013-12-19 20:30:00,
2013-12-19 14:33:00,58.2,42.1,17.72,SSE,159,10.5,10.5,55,0.00,,---,0.00,VWS V14.00,2013-12-19 20:33:00,
2013-12-19 14:39:00,58.3,42.3,17.72,SSE,159,10.5,10.5,55,0.00,,---,0.00,VWS V14.00,2013-12-19 20:39:00,
2013-12-19 14:45:00,58.3,42.3,17.72,SE,137,10.5,10.5,55,0.00,,---,0.00,VWS V14.00,2013-12-19 20:45:00,
2013-12-19 14:48:00,58.3,42.3,17.72,SSE,156,10.5,10.5,55,0.00,,---,0.00,VWS V14.00,2013-12-19 20:48:00,
2013-12-19 14:51:00,58.3,42.3,17.72,SSE,148,8.7,10.5,55,0.00,,---,0.00,VWS V14.00,2013-12-19 20:51:00,
2013-12-19 14:58:00,58.5,42.0,17.72,SSE,156,9.2,10.5,54,0.00,,---,0.00,VWS V14.00,2013-12-19 20:58:00,
2013-12-19 15:01:00,58.5,42.0,17.72,SSE,158,7.6,10.5,54,0.00,,---,0.00,VWS V14.00,2013-12-19 21:01:00,
2013-12-19 15:03:00,58.5,42.0,17.72,South,171,11.4,11.4,54,0.00,,---,0.00,VWS V14.00,2013-12-19 21:03:00,
2013-12-19 15:07:00,58.5,42.0,17.72,SSE,153,7.6,11.4,54,0.00,,---,0.00,VWS V14.00,2013-12-19 21:07:00,
2013-12-19 15:10:00,58.5,42.0,17.72,South,171,6.7,11.4,54,0.00,,---,0.00,VWS V14.00,2013-12-19 21:10:00,
2013-12-19 15:16:00,58.5,42.0,17.72,SSE,168,8.3,11.4,54,0.00,,---,0.00,VWS V14.00,2013-12-19 21:16:00,
2013-12-19 15:18:00,58.5,42.0,17.72,SSE,168,8.3,11.4,54,0.00,,---,0.00,VWS V14.00,2013-12-19 21:18:00,
2013-12-19 15:19:00,58.5,42.0,17.72,SSE,168,8.3,8.3,54,0.00,,---,0.00,VWS V14.00,2013-12-19 21:19:00,
2013-12-19 15:25:00,58.5,42.0,17.72,SSE,166,8.1,8.3,54,0.00,,---,0.00,VWS V14.00,2013-12-19 21:25:00,
2013-12-19 15:31:00,58.3,41.8,17.72,South,173,8.3,8.3,54,0.00,,---,0.00,VWS V14.00,2013-12-19 21:31:00,
2013-12-19 15:34:00,58.3,41.8,17.72,South,173,8.3,8.3,54,0.00,,---,0.00,VWS V14.00,2013-12-19 21:34:00,
2013-12-19 15:37:00,58.3,41.8,17.72,South,184,8.1,8.3,54,0.00,,---,0.00,VWS V14.00,2013-12-19 21:37:00,
2013-12-19 15:43:00,58.3,41.8,17.72,SSE,158,7.6,8.7,54,0.00,,---,0.00,VWS V14.00,2013-12-19 21:43:00,
2013-12-19 15:46:00,58.3,41.8,17.72,SSE,158,7.6,8.7,54,0.00,,---,0.00,VWS V14.00,2013-12-19 21:46:00,
2013-12-19 15:48:00,58.3,41.8,17.72,SSE,148,6.3,8.7,54,0.00,,---,0.00,VWS V14.00,2013-12-19 21:48:00,
2013-12-19 15:49:00,58.3,41.8,17.72,SSE,148,6.3,6.3,54,0.00,,---,0.00,VWS V14.00,2013-12-19 21:49:00,
2013-12-19 15:52:00,58.2,41.6,17.72,SSE,148,6.3,6.3,54,0.00,,---,0.00,VWS V14.00,2013-12-19 21:52:00,
2013-12-19 15:55:00,58.2,41.6,17.72,SSE,148,6.3,6.3,54,0.00,,---,0.00,VWS V14.00,2013-12-19 21:55:00,
2013-12-19 16:01:00,58.2,41.6,17.72,South,180,6.3,6.3,54,0.00,,---,0.00,VWS V14.00,2013-12-19 22:01:00,
2013-12-19 16:03:00,58.2,41.6,17.72,South,182,6.3,6.3,54,0.00,,---,0.00,VWS V14.00,2013-12-19 22:03:00,
2013-12-19 16:07:00,58.2,41.6,17.72,South,182,6.3,6.3,54,0.00,,---,0.00,VWS V14.00,2013-12-19 22:07:00,
2013-12-19 16:10:00,58.0,41.9,17.72,South,182,6.3,6.3,55,0.00,,---,0.00,VWS V14.00,2013-12-19 22:10:00,
2013-12-19 16:13:00,58.0,41.9,17.72,SSE,156,6.3,7.6,55,0.00,,---,0.00,VWS V14.00,2013-12-19 22:13:00,
2013-12-19 16:16:00,58.0,41.9,17.72,SSE,147,6.3,7.6,55,0.00,,---,0.00,VWS V14.00,2013-12-19 22:16:00,
2013-12-19 16:19:00,58.0,41.9,17.72,South,176,8.1,8.1,55,0.00,,---,0.00,VWS V14.00,2013-12-19 22:19:00,
2013-12-19 16:22:00,58.0,41.9,17.72,SSE,153,7.2,8.1,55,0.00,,---,0.00,VWS V14.00,2013-12-19 22:22:00,
2013-12-19 16:25:00,58.0,41.9,17.72,SSE,164,7.6,8.1,55,0.00,,---,0.00,VWS V14.00,2013-12-19 22:25:00,
2013-12-19 16:28:00,58.0,41.9,17.72,SSE,161,6.3,8.1,55,0.00,,---,0.00,VWS V14.00,2013-12-19 22:28:00,
2013-12-19 16:31:00,58.0,41.9,17.72,SSE,162,8.1,8.1,55,0.00,,---,0.00,VWS V14.00,2013-12-19 22:31:00,
2013-12-19 16:33:00,58.0,41.9,17.72,SSE,162,8.1,8.1,55,0.00,,---,0.00,VWS V14.00,2013-12-19 22:33:00,
2013-12-19 16:37:00,57.8,41.8,17.72,SSE,163,5.8,8.1,55,0.00,,---,0.00,VWS V14.00,2013-12-19 22:37:00,
2013-12-19 16:40:00,57.8,41.8,17.72,SSE,163,5.8,8.1,55,0.00,,---,0.00,VWS V14.00,2013-12-19 22:40:00,
2013-12-19 16:43:00,57.8,41.8,17.72,SSE,163,5.8,8.1,55,0.00,,---,0.00,VWS V14.00,2013-12-19 22:43:00,
2013-12-19 16:48:00,57.8,41.8,17.72,SSE,163,5.8,8.1,55,0.00,,---,0.00,VWS V14.00,2013-12-19 22:48:00,
2013-12-19 16:49:00,57.8,41.8,17.72,SSE,163,5.8,5.8,55,0.00,,---,0.00,VWS V14.00,2013-12-19 22:49:00,
2013-12-19 16:52:00,57.8,41.8,17.72,South,169,8.3,8.3,55,0.00,,---,0.00,VWS V14.00,2013-12-19 22:52:00,
2013-12-19 16:55:00,57.8,41.8,17.72,South,169,8.3,8.3,55,0.00,,---,0.00,VWS V14.00,2013-12-19 22:55:00,
2013-12-19 16:58:00,57.6,42.0,17.72,SSE,160,8.3,8.3,56,0.00,,---,0.00,VWS V14.00,2013-12-19 22:58:00,
2013-12-19 17:01:00,57.6,42.0,17.72,SSE,160,8.3,8.3,56,0.00,,---,0.00,VWS V14.00,2013-12-19 23:01:00,
2013-12-19 17:03:00,57.6,42.0,17.72,South,171,8.7,8.7,56,0.00,,---,0.00,VWS V14.00,2013-12-19 23:03:00,
2013-12-19 17:10:00,57.6,42.0,17.72,South,171,6.7,8.7,56,0.00,,---,0.00,VWS V14.00,2013-12-19 23:10:00,
2013-12-19 17:13:00,57.6,42.0,17.72,SE,146,6.3,8.7,56,0.00,,---,0.00,VWS V14.00,2013-12-19 23:13:00,
2013-12-19 17:16:00,57.6,42.0,17.72,SE,146,6.3,8.7,56,0.00,,---,0.00,VWS V14.00,2013-12-19 23:16:00,
2013-12-19 17:19:00,57.6,42.0,17.72,SE,146,6.3,6.3,56,0.00,,---,0.00,VWS V14.00,2013-12-19 23:19:00,
2013-12-19 17:22:00,57.6,42.0,17.72,South,177,5.8,6.3,56,0.00,,---,0.00,VWS V14.00,2013-12-19 23:22:00,
2013-12-19 17:25:00,57.6,42.0,17.72,SE,145,5.4,7.6,56,0.00,,---,0.00,VWS V14.00,2013-12-19 23:25:00,
2013-12-19 17:28:00,57.6,42.5,17.72,SE,145,5.4,7.6,57,0.00,,---,0.00,VWS V14.00,2013-12-19 23:28:00,
2013-12-19 17:31:00,57.6,42.5,17.72,SE,145,5.4,7.6,57,0.00,,---,0.00,VWS V14.00,2013-12-19 23:31:00,
2013-12-19 17:37:00,57.6,42.5,17.72,SE,145,5.4,5.4,57,0.00,,---,0.00,VWS V14.00,2013-12-19 23:37:00,
2013-12-19 17:40:00,57.6,42.5,17.72,SE,145,5.4,5.4,57,0.00,,---,0.00,VWS V14.00,2013-12-19 23:40:00,
2013-12-19 17:43:00,57.4,42.3,17.72,SSE,153,4.0,5.4,57,0.00,,---,0.00,VWS V14.00,2013-12-19 23:43:00,
2013-12-19 17:46:00,57.4,42.3,17.72,South,170,4.9,5.4,57,0.00,,---,0.00,VWS V14.00,2013-12-19 23:46:00,
2013-12-19 17:49:00,57.4,42.3,17.72,SSE,155,5.4,5.4,57,0.00,,---,0.00,VWS V14.00,2013-12-19 23:49:00,
2013-12-19 17:52:00,57.4,42.3,17.72,SSE,155,5.4,5.4,57,0.00,,---,0.00,VWS V14.00,2013-12-19 23:52:00,
2013-12-19 17:55:00,57.4,42.3,17.72,SSE,149,5.4,5.4,57,0.00,,---,0.00,VWS V14.00,2013-12-19 23:55:00,
2013-12-19 17:58:00,57.4,42.3,17.72,SSE,162,6.3,6.3,57,0.00,,---,0.00,VWS V14.00,2013-12-19 23:58:00,
2013-12-19 18:01:00,57.4,42.3,17.72,South,171,7.6,7.6,57,0.00,,---,0.00,VWS V14.00,2013-12-20 00:01:00,
2013-12-19 18:04:00,57.4,42.3,17.72,South,171,7.6,7.6,57,0.00,,---,0.00,VWS V14.00,2013-12-20 00:04:00,
2013-12-19 18:07:00,57.4,42.3,17.72,South,171,7.6,7.6,57,0.00,,---,0.00,VWS V14.00,2013-12-20 00:07:00,
2013-12-19 18:10:00,57.4,42.3,17.72,South,171,7.6,7.6,57,0.00,,---,0.00,VWS V14.00,2013-12-20 00:10:00,
2013-12-19 18:13:00,57.4,42.3,17.72,SSE,155,6.3,7.6,57,0.00,,---,0.00,VWS V14.00,2013-12-20 00:13:00,
2013-12-19 18:18:00,57.4,42.3,17.72,SSE,155,6.3,7.6,57,0.00,,---,0.00,VWS V14.00,2013-12-20 00:18:00,
2013-12-19 18:19:00,57.4,42.3,17.72,SSE,155,6.3,6.3,57,0.00,,---,0.00,VWS V14.00,2013-12-20 00:19:00,
2013-12-19 18:22:00,57.4,42.3,17.72,SSE,149,5.8,6.3,57,0.00,,---,0.00,VWS V14.00,2013-12-20 00:22:00,
2013-12-19 18:25:00,57.4,42.8,17.72,SSE,149,5.8,6.3,58,0.00,,---,0.00,VWS V14.00,2013-12-20 00:25:00,
2013-12-19 18:28:00,57.4,42.8,17.72,SSE,149,3.6,6.3,58,0.00,,---,0.00,VWS V14.00,2013-12-20 00:28:00,
2013-12-19 18:31:00,57.4,42.8,17.72,SE,146,5.8,6.3,58,0.00,,---,0.00,VWS V14.00,2013-12-20 00:31:00,
2013-12-19 18:33:00,57.4,42.8,17.72,SSE,150,6.3,6.3,58,0.00,,---,0.00,VWS V14.00,2013-12-20 00:33:00,
2013-12-19 18:34:00,57.4,42.8,17.72,SSE,150,6.3,6.3,58,0.00,,---,0.00,VWS V14.00,2013-12-20 00:34:00,
2013-12-19 18:40:00,57.4,42.8,17.72,SSE,161,4.0,6.3,58,0.00,,---,0.00,VWS V14.00,2013-12-20 00:40:00,
2013-12-19 18:46:00,57.4,42.8,17.72,SSE,166,8.1,8.1,58,0.00,,---,0.00,VWS V14.00,2013-12-20 00:46:00,
2013-12-19 18:49:00,57.4,42.8,17.72,SSE,166,8.1,8.1,58,0.00,,---,0.00,VWS V14.00,2013-12-20 00:49:00,
2013-12-19 18:55:00,57.4,43.2,17.72,South,169,8.3,8.3,59,0.00,,---,0.00,VWS V14.00,2013-12-20 00:55:00,
2013-12-19 19:01:00,57.4,43.2,17.72,South,169,8.3,8.3,59,0.00,,---,0.00,VWS V14.00,2013-12-20 01:01:00,
2013-12-19 19:03:00,57.4,43.2,17.72,South,169,8.3,8.3,59,0.00,,---,0.00,VWS V14.00,2013-12-20 01:03:00,
2013-12-19 19:04:00,57.4,43.2,17.72,South,169,8.3,8.3,59,0.00,,---,0.00,VWS V14.00,2013-12-20 01:04:00,
2013-12-19 19:10:00,57.4,43.2,17.72,South,171,8.1,8.7,59,0.00,,---,0.00,VWS V14.00,2013-12-20 01:10:00,
2013-12-19 19:13:00,57.4,43.2,17.72,South,171,8.1,8.7,59,0.00,,---,0.00,VWS V14.00,2013-12-20 01:13:00,
2013-12-19 19:16:00,57.4,43.2,17.72,South,171,8.1,8.7,59,0.00,,---,0.00,VWS V14.00,2013-12-20 01:16:00,
2013-12-19 19:18:00,57.4,43.2,17.72,South,171,8.1,8.7,59,0.00,,---,0.00,VWS V14.00,2013-12-20 01:18:00,
2013-12-19 19:19:00,57.4,43.2,17.72,SSE,151,8.7,8.7,59,0.00,,---,0.00,VWS V14.00,2013-12-20 01:19:00,
2013-12-19 19:25:00,57.4,43.7,17.72,SSE,155,8.7,8.7,60,0.00,,---,0.00,VWS V14.00,2013-12-20 01:25:00,
2013-12-19 19:28:00,57.4,43.7,17.72,SSE,154,8.7,8.7,60,0.00,,---,0.00,VWS V14.00,2013-12-20 01:28:00,
2013-12-19 19:31:00,57.4,43.7,17.72,SE,145,7.6,8.7,60,0.00,,---,0.00,VWS V14.00,2013-12-20 01:31:00,
2013-12-19 19:33:00,57.4,43.7,17.72,SE,145,7.6,8.7,60,0.00,,---,0.00,VWS V14.00,2013-12-20 01:33:00,
2013-12-19 19:34:00,57.4,43.7,17.72,SE,145,7.6,7.6,60,0.00,,---,0.00,VWS V14.00,2013-12-20 01:34:00,
2013-12-19 19:40:00,57.6,43.8,17.72,SSE,166,8.3,8.3,60,0.00,,---,0.00,VWS V14.00,2013-12-20 01:40:00,
2013-12-19 19:43:00,57.6,43.8,17.72,SSE,163,8.1,8.3,60,0.00,,---,0.00,VWS V14.00,2013-12-20 01:43:00,
2013-12-19 19:46:00,57.6,43.8,17.72,SSE,163,8.1,8.3,60,0.00,,---,0.00,VWS V14.00,2013-12-20 01:46:00,
2013-12-19 19:48:00,57.6,43.8,17.72,SSE,163,8.1,8.3,60,0.00,,---,0.00,VWS V14.00,2013-12-20 01:48:00,
2013-12-19 19:49:00,57.6,43.8,17.72,SSE,163,8.1,8.1,60,0.00,,---,0.00,VWS V14.00,2013-12-20 01:49:00,
2013-12-19 19:56:00,57.6,44.3,17.72,SSE,163,8.1,8.1,61,0.00,,---,0.00,VWS V14.00,2013-12-20 01:56:00,
2013-12-19 19:59:00,57.6,44.3,17.72,SSE,163,8.1,8.1,61,0.00,,---,0.00,VWS V14.00,2013-12-20 01:59:00,
2013-12-19 20:02:00,57.6,44.3,17.72,SSE,163,8.7,8.7,61,0.00,,---,0.00,VWS V14.00,2013-12-20 02:02:00,
2013-12-19 20:03:00,57.6,44.3,17.72,SSE,163,8.7,8.7,61,0.00,,---,0.00,VWS V14.00,2013-12-20 02:03:00,
2013-12-19 20:05:00,57.6,44.3,17.72,SSE,163,8.7,8.7,61,0.00,,---,0.00,VWS V14.00,2013-12-20 02:05:00,
2013-12-19 20:08:00,57.6,44.3,17.72,SSE,150,8.1,8.7,61,0.00,,---,0.00,VWS V14.00,2013-12-20 02:08:00,
2013-12-19 20:11:00,57.6,44.3,17.72,SSE,147,7.2,8.7,61,0.00,,---,0.00,VWS V14.00,2013-12-20 02:11:00,
2013-12-19 20:14:00,57.6,44.3,17.72,SSE,147,7.2,8.7,61,0.00,,---,0.00,VWS V14.00,2013-12-20 02:14:00,
2013-12-19 20:18:00,57.6,44.3,17.72,South,170,8.1,8.7,61,0.00,,---,0.00,VWS V14.00,2013-12-20 02:18:00,
2013-12-19 20:20:00,57.6,44.3,17.72,SSE,168,8.1,8.1,61,0.00,,---,0.00,VWS V14.00,2013-12-20 02:20:00,
2013-12-19 20:26:00,57.6,44.3,17.72,SSE,168,8.1,8.1,61,0.00,,---,0.00,VWS V14.00,2013-12-20 02:26:00,
2013-12-19 20:32:00,57.8,44.5,17.72,SSE,168,8.1,8.1,61,0.00,,---,0.00,VWS V14.00,2013-12-20 02:32:00,
2013-12-19 20:33:00,57.8,44.5,17.72,SSE,168,8.1,8.1,61,0.00,,---,0.00,VWS V14.00,2013-12-20 02:33:00,
2013-12-19 20:38:00,57.8,44.5,17.72,SSE,168,8.1,8.1,61,0.00,,---,0.00,VWS V14.00,2013-12-20 02:38:00,
2013-12-19 20:41:00,57.8,44.5,17.72,SSE,167,6.7,8.1,61,0.00,,---,0.00,VWS V14.00,2013-12-20 02:41:00,
2013-12-19 20:47:00,57.8,44.5,17.72,SSE,151,5.4,8.1,61,0.00,,---,0.00,VWS V14.00,2013-12-20 02:47:00,
2013-12-19 20:48:00,57.8,44.5,17.72,SSE,151,5.4,8.1,61,0.00,,---,0.00,VWS V14.00,2013-12-20 02:48:00,
2013-12-19 20:50:00,57.8,44.5,17.72,SSE,151,5.4,5.4,61,0.00,,---,0.00,VWS V14.00,2013-12-20 02:50:00,
2013-12-19 20:53:00,57.8,44.5,17.72,SSE,161,6.3,6.3,61,0.00,,---,0.00,VWS V14.00,2013-12-20 02:53:00,
2013-12-19 20:56:00,57.8,44.9,17.72,SSE,158,8.3,8.3,62,0.00,,---,0.00,VWS V14.00,2013-12-20 02:56:00,
2013-12-19 20:59:00,57.8,44.9,17.72,SSE,158,8.3,8.3,62,0.00,,---,0.00,VWS V14.00,2013-12-20 02:59:00,
2013-12-19 21:03:00,57.8,44.9,17.72,SSE,153,8.3,8.3,62,0.00,,---,0.00,VWS V14.00,2013-12-20 03:03:00,
2013-12-19 21:05:00,57.8,44.9,17.72,SSE,153,8.3,8.3,62,0.00,,---,0.00,VWS V14.00,2013-12-20 03:05:00,
2013-12-19 21:08:00,57.8,44.9,17.72,SSE,153,8.3,8.3,62,0.00,,---,0.00,VWS V14.00,2013-12-20 03:08:00,
2013-12-19 21:11:00,57.8,44.9,17.72,SSE,153,8.3,8.3,62,0.00,,---,0.00,VWS V14.00,2013-12-20 03:11:00,
2013-12-19 21:14:00,57.8,44.9,17.72,SSE,150,8.1,8.3,62,0.00,,---,0.00,VWS V14.00,2013-12-20 03:14:00,
2013-12-19 21:20:00,58.0,45.0,17.72,SSE,167,7.6,7.6,62,0.00,,---,0.00,VWS V14.00,2013-12-20 03:20:00,
2013-12-19 21:23:00,58.0,45.0,17.72,SSE,167,7.6,7.6,62,0.00,,---,0.00,VWS V14.00,2013-12-20 03:23:00,
2013-12-19 21:26:00,58.0,45.0,17.72,SSE,167,7.6,7.6,62,0.00,,---,0.00,VWS V14.00,2013-12-20 03:26:00,
2013-12-19 21:29:00,58.0,45.0,17.72,SSE,160,8.1,8.1,62,0.00,,---,0.00,VWS V14.00,2013-12-20 03:29:00,
2013-12-19 21:32:00,58.0,45.0,17.72,SSE,149,5.8,8.1,62,0.00,,---,0.00,VWS V14.00,2013-12-20 03:32:00,
2013-12-19 21:33:00,58.0,45.0,17.72,SSE,149,5.8,8.1,62,0.00,,---,0.00,VWS V14.00,2013-12-20 03:33:00,
2013-12-19 21:35:00,58.0,45.0,17.72,SSE,156,8.3,8.3,62,0.00,,---,0.00,VWS V14.00,2013-12-20 03:35:00,
2013-12-19 21:41:00,58.0,45.5,17.72,SSE,156,8.3,8.3,63,0.00,,---,0.00,VWS V14.00,2013-12-20 03:41:00,
2013-12-19 21:47:00,58.0,45.5,17.72,SSE,156,8.3,8.3,63,0.00,,---,0.00,VWS V14.00,2013-12-20 03:47:00,
2013-12-19 21:50:00,58.0,45.5,17.72,SE,129,6.3,8.3,63,0.00,,---,0.00,VWS V14.00,2013-12-20 03:50:00,
2013-12-19 21:53:00,58.0,45.5,17.72,SE,129,6.3,8.3,63,0.00,,---,0.00,VWS V14.00,2013-12-20 03:53:00,
2013-12-19 21:56:00,58.0,45.5,17.72,SE,129,6.3,8.3,63,0.00,,---,0.00,VWS V14.00,2013-12-20 03:56:00,
2013-12-19 22:02:00,58.0,45.9,17.72,SSE,162,8.7,8.7,64,0.00,,---,0.00,VWS V14.00,2013-12-20 04:02:00,
2013-12-19 22:05:00,58.0,45.9,17.72,SSE,162,8.7,8.7,64,0.00,,---,0.00,VWS V14.00,2013-12-20 04:05:00,
2013-12-19 22:08:00,58.0,45.9,17.72,South,188,8.1,8.7,64,0.00,,---,0.00,VWS V14.00,2013-12-20 04:08:00,
2013-12-19 22:11:00,58.2,46.1,17.72,South,188,8.1,8.7,64,0.00,,---,0.00,VWS V14.00,2013-12-20 04:11:00,
2013-12-19 22:17:00,58.2,46.1,17.72,SSE,167,8.1,8.7,64,0.00,,---,0.00,VWS V14.00,2013-12-20 04:17:00,
2013-12-19 22:20:00,58.2,46.1,17.72,SSE,162,7.6,7.6,64,0.00,,---,0.00,VWS V14.00,2013-12-20 04:20:00,
2013-12-19 22:23:00,58.2,46.1,17.72,SSE,162,7.6,7.6,64,0.00,,---,0.00,VWS V14.00,2013-12-20 04:23:00,
2013-12-19 22:26:00,58.2,46.1,17.72,SE,146,7.6,7.6,64,0.00,,---,0.00,VWS V14.00,2013-12-20 04:26:00,
2013-12-19 22:29:00,58.2,46.1,17.72,SE,146,7.6,7.6,64,0.00,,---,0.00,VWS V14.00,2013-12-20 04:29:00,
2013-12-19 22:35:00,58.2,46.1,17.72,SSE,167,7.6,7.6,64,0.00,,---,0.00,VWS V14.00,2013-12-20 04:35:00,
2013-12-19 22:38:00,58.2,46.1,17.72,SSE,162,5.4,7.6,64,0.00,,---,0.00,VWS V14.00,2013-12-20 04:38:00,
2013-12-19 22:44:00,58.2,46.5,17.72,SSE,162,5.4,7.6,65,0.00,,---,0.00,VWS V14.00,2013-12-20 04:44:00,
2013-12-19 22:47:00,58.2,46.5,17.72,SSE,162,5.4,7.6,65,0.00,,---,0.00,VWS V14.00,2013-12-20 04:47:00,
2013-12-19 22:48:00,58.3,46.6,17.72,SSE,151,7.6,7.6,65,0.00,,---,0.00,VWS V14.00,2013-12-20 04:48:00,
2013-12-19 22:53:00,58.3,46.6,17.72,South,172,8.1,8.1,65,0.00,,---,0.00,VWS V14.00,2013-12-20 04:53:00,
2013-12-19 22:56:00,58.3,46.6,17.72,South,172,8.1,8.1,65,0.00,,---,0.00,VWS V14.00,2013-12-20 04:56:00,
2013-12-19 22:59:00,58.3,46.6,17.72,SSE,165,6.3,8.1,65,0.00,,---,0.00,VWS V14.00,2013-12-20 04:59:00,
2013-12-19 23:02:00,58.3,46.6,17.72,SSE,165,6.3,8.1,65,0.00,,---,0.00,VWS V14.00,2013-12-20 05:02:00,
2013-12-19 23:03:00,58.3,46.6,17.72,SSE,165,6.3,8.1,65,0.00,,---,0.00,VWS V14.00,2013-12-20 05:03:00,
2013-12-19 23:05:00,58.3,46.6,17.72,SSE,165,6.3,6.3,65,0.00,,---,0.00,VWS V14.00,2013-12-20 05:05:00,
2013-12-19 23:11:00,58.3,46.6,17.72,SE,140,7.6,7.6,65,0.00,,---,0.00,VWS V14.00,2013-12-20 05:11:00,
2013-12-19 23:14:00,58.3,46.6,17.72,SSE,162,7.2,7.6,65,0.00,,---,0.00,VWS V14.00,2013-12-20 05:14:00,
2013-12-19 23:17:00,58.3,46.6,17.72,SSE,162,7.2,7.6,65,0.00,,---,0.00,VWS V14.00,2013-12-20 05:17:00,
2013-12-19 23:18:00,58.3,46.6,17.72,SSE,162,7.2,7.6,65,0.00,,---,0.00,VWS V14.00,2013-12-20 05:18:00,
2013-12-19 23:23:00,58.3,46.6,17.72,SSE,162,7.2,7.2,65,0.00,,---,0.00,VWS V14.00,2013-12-20 05:23:00,
2013-12-19 23:26:00,58.3,46.6,17.72,SSE,159,8.1,8.1,65,0.00,,---,0.00,VWS V14.00,2013-12-20 05:26:00,
2013-12-19 23:29:00,58.3,46.6,17.72,SSE,159,8.1,8.1,65,0.00,,---,0.00,VWS V14.00,2013-12-20 05:29:00,
2013-12-19 23:32:00,58.3,47.0,17.72,SSE,159,8.1,8.1,66,0.00,,---,0.00,VWS V14.00,2013-12-20 05:32:00,
2013-12-19 23:33:00,58.3,47.0,17.72,SSE,159,8.1,8.1,66,0.00,,---,0.00,VWS V14.00,2013-12-20 05:33:00,
2013-12-19 23:41:00,58.3,47.0,17.72,SSE,159,8.1,8.1,66,0.00,,---,0.00,VWS V14.00,2013-12-20 05:41:00,
2013-12-19 23:44:00,58.3,47.0,17.72,SSE,159,8.1,8.1,66,0.00,,---,0.00,VWS V14.00,2013-12-20 05:44:00,
2013-12-19 23:48:00,58.5,47.2,17.72,SSE,156,5.4,8.1,66,0.00,,---,0.00,VWS V14.00,2013-12-20 05:48:00,
2013-12-19 23:50:00,58.5,47.2,17.72,SSE,156,5.4,5.4,66,0.00,,---,0.00,VWS V14.00,2013-12-20 05:50:00,
2013-12-19 23:53:00,58.5,47.2,17.72,SSE,156,5.4,5.4,66,0.00,,---,0.00,VWS V14.00,2013-12-20 05:53:00,
2013-12-19 23:56:00,58.5,47.2,17.72,SSE,158,5.8,5.8,66,0.00,,---,0.00,VWS V14.00,2013-12-20 05:56:00,
2013-12-19 23:59:00,58.5,47.2,17.72,SE,146,5.4,5.8,66,0.00,,---,0.00,VWS V14.00,2013-12-20 05:59:00,